• In Österreich
  • Länderverzeichnis
  • Für 7 Tage
  • Wassertemperatur
  • Satellitenkarten
  • Wetterkarte
  • News
  • Widgets
  • user-avatar
    Anmelden

    Stündliche Wetter Kipungo

    Heute, 18 Oktober, Mittwoch

    Zeit Temperatur Niederschläge Wind Luftdruck Luftfeuchtigkeit
    00:00 +24°C° 0 mm 2 m/S 653 mmHg 44%
    01:00 +23°C° 0 mm 2 m/S 653 mmHg 49%
    02:00 +21°C° 0 mm 2 m/S 653 mmHg 51%
    03:00 +21°C° 0 mm 2 m/S 653 mmHg 53%
    04:00 +20°C° 0 mm 2 m/S 653 mmHg 55%
    05:00 +21°C° 0 mm 2 m/S 653 mmHg 51%
    06:00 +23°C° 0 mm 2 m/S 654 mmHg 47%
    07:00 +24°C° 0 mm 2 m/S 655 mmHg 43%
    08:00 +28°C° 0 mm 2 m/S 655 mmHg 34%
    09:00 +31°C° 0 mm 2 m/S 656 mmHg 25%
    10:00 +36°C° 0 mm 2 m/S 657 mmHg 16%
    11:00 +38°C° 0 mm 2 m/S 657 mmHg 14%
    12:00 +40°C° 0 mm 1 m/S 657 mmHg 12%
    13:00 +42°C° 0 mm 1 m/S 656 mmHg 10%
    14:00 +41°C° 0 mm 2 m/S 656 mmHg 11%
    15:00 +39°C° 0 mm 2 m/S 655 mmHg 12%
    16:00 +38°C° 0 mm 3 m/S 654 mmHg 13%
    17:00 +36°C° 0 mm 3 m/S 654 mmHg 19%
    18:00 +33°C° 0 mm 4 m/S 654 mmHg 24%
    19:00 +30°C° 0 mm 4 m/S 654 mmHg 30%
    20:00 +28°C° 0 mm 4 m/S 654 mmHg 36%
    21:00 +27°C° 0 mm 3 m/S 654 mmHg 43%
    22:00 +25°C° 0 mm 2 m/S 655 mmHg 49%
    23:00 +24°C° 0 mm 2 m/S 654 mmHg 53%

    Morgen, 19 Oktober, Donnerstag

    Zeit Temperatur Niederschläge Wind Luftdruck Luftfeuchtigkeit
    00:00 +24°C° 0 mm 2 m/S 654 mmHg 57%
    01:00 +23°C° 0 mm 2 m/S 654 mmHg 61%
    02:00 +22°C° 0 mm 1 m/S 653 mmHg 64%
    03:00 +21°C° 0 mm 1 m/S 653 mmHg 67%
    04:00 +19°C° 0 mm 0 m/S 653 mmHg 70%
    05:00 +22°C° 0 mm 1 m/S 654 mmHg 66%
    06:00 +23°C° 0 mm 1 m/S 654 mmHg 61%
    07:00 +24°C° 0 mm 1 m/S 655 mmHg 57%
    08:00 +28°C° 0 mm 1 m/S 656 mmHg 44%
    09:00 +32°C° 0 mm 1 m/S 657 mmHg 32%
    10:00 +36°C° 0 mm 1 m/S 658 mmHg 20%
    11:00 +39°C° 0 mm 1 m/S 657 mmHg 17%
    12:00 +41°C° 0 mm 1 m/S 657 mmHg 14%
    13:00 +43°C° 0 mm 1 m/S 656 mmHg 11%
    14:00 +41°C° 0 mm 1 m/S 656 mmHg 12%
    15:00 +40°C° 0 mm 1 m/S 655 mmHg 13%
    16:00 +39°C° 0 mm 2 m/S 654 mmHg 13%
    17:00 +36°C° 0 mm 2 m/S 654 mmHg 18%
    18:00 +34°C° 0 mm 3 m/S 654 mmHg 24%
    19:00 +30°C° 0 mm 4 m/S 654 mmHg 29%
    20:00 +29°C° 0 mm 4 m/S 654 mmHg 35%
    21:00 +27°C° 0 mm 3 m/S 654 mmHg 41%
    22:00 +26°C° 0 mm 3 m/S 655 mmHg 48%
    23:00 +25°C° 0 mm 2 m/S 654 mmHg 51%

    übermorgen, 20 Oktober, Freitag

    Zeit Temperatur Niederschläge Wind Luftdruck Luftfeuchtigkeit
    00:00 +24°C° 0 mm 2 m/S 654 mmHg 55%
    01:00 +23°C° 0 mm 2 m/S 653 mmHg 59%
    02:00 +23°C° 0 mm 2 m/S 653 mmHg 61%
    03:00 +22°C° 0 mm 1 m/S 653 mmHg 63%
    04:00 +21°C° 0 mm 1 m/S 653 mmHg 64%
    05:00 +22°C° 0 mm 1 m/S 653 mmHg 62%
    06:00 +23°C° 0 mm 1 m/S 654 mmHg 59%
    07:00 +24°C° 0 mm 1 m/S 655 mmHg 57%
    08:00 +28°C° 0 mm 1 m/S 656 mmHg 44%
    09:00 +32°C° 0 mm 1 m/S 657 mmHg 31%
    10:00 +37°C° 0 mm 1 m/S 658 mmHg 18%
    11:00 +39°C° 0 mm 1 m/S 658 mmHg 16%
    12:00 +41°C° 0 mm 1 m/S 657 mmHg 13%
    13:00 +42°C° 0 mm 1 m/S 657 mmHg 11%
    14:00 +41°C° 0 mm 1 m/S 656 mmHg 11%
    15:00 +40°C° 0 mm 1 m/S 655 mmHg 12%
    16:00 +39°C° 0 mm 1 m/S 654 mmHg 12%
    17:00 +36°C° 0 mm 2 m/S 655 mmHg 17%
    18:00 +33°C° 0 mm 3 m/S 655 mmHg 22%
    19:00 +30°C° 0 mm 4 m/S 655 mmHg 27%
    20:00 +28°C° 0 mm 3 m/S 655 mmHg 34%
    21:00 +27°C° 0 mm 3 m/S 655 mmHg 41%
    22:00 +25°C° 0 mm 3 m/S 655 mmHg 47%
    23:00 +25°C° 0 mm 2 m/S 654 mmHg 50%

    21 Oktober, Samstag

    Zeit Temperatur Niederschläge Wind Luftdruck Luftfeuchtigkeit
    00:00 +24°C° 0 mm 2 m/S 654 mmHg 53%
    01:00 +23°C° 0 mm 2 m/S 653 mmHg 55%
    02:00 +22°C° 0 mm 1 m/S 653 mmHg 58%
    03:00 +21°C° 0 mm 1 m/S 653 mmHg 61%
    04:00 +20°C° 0 mm 1 m/S 653 mmHg 63%
    05:00 +22°C° 0 mm 1 m/S 654 mmHg 59%
    06:00 +23°C° 0 mm 1 m/S 655 mmHg 54%
    07:00 +22°C° 0 mm 0 m/S 656 mmHg 49%
    08:00 +28°C° 0 mm 1 m/S 656 mmHg 38%
    09:00 +31°C° 0 mm 2 m/S 657 mmHg 26%
    10:00 +35°C° 0 mm 3 m/S 657 mmHg 15%
    11:00 +37°C° 0 mm 3 m/S 656 mmHg 13%
    12:00 +38°C° 0 mm 3 m/S 656 mmHg 11%
    13:00 +40°C° 0 mm 3 m/S 655 mmHg 10%
    14:00 +40°C° 0 mm 3 m/S 655 mmHg 10%
    15:00 +40°C° 0 mm 3 m/S 654 mmHg 9%
    16:00 +40°C° 0 mm 2 m/S 654 mmHg 9%
    17:00 +37°C° 0 mm 3 m/S 654 mmHg 14%
    18:00 +34°C° 0 mm 3 m/S 654 mmHg 18%
    19:00 +30°C° 0 mm 3 m/S 654 mmHg 22%
    20:00 +29°C° 0 mm 3 m/S 654 mmHg 30%
    21:00 +27°C° 0 mm 3 m/S 654 mmHg 38%
    22:00 +25°C° 0 mm 3 m/S 654 mmHg 46%
    23:00 +24°C° 0 mm 2 m/S 654 mmHg 49%

    22 Oktober, Sonntag

    Zeit Temperatur Niederschläge Wind Luftdruck Luftfeuchtigkeit
    00:00 +23°C° 0 mm 2 m/S 654 mmHg 53%
    01:00 +22°C° 0 mm 1 m/S 654 mmHg 56%
    02:00 +22°C° 0 mm 1 m/S 653 mmHg 59%
    03:00 +21°C° 0 mm 1 m/S 653 mmHg 61%
    04:00 +20°C° 0 mm 1 m/S 653 mmHg 64%
    05:00 +22°C° 0 mm 1 m/S 654 mmHg 56%
    06:00 +23°C° 0 mm 1 m/S 655 mmHg 49%
    07:00 +25°C° 0 mm 1 m/S 656 mmHg 41%
    08:00 +28°C° 0 mm 2 m/S 656 mmHg 32%
    09:00 +31°C° 0 mm 3 m/S 657 mmHg 23%
    10:00 +36°C° 0 mm 4 m/S 657 mmHg 13%
    11:00 +37°C° 0 mm 3 m/S 657 mmHg 12%
    12:00 +38°C° 0 mm 3 m/S 656 mmHg 11%
    13:00 +39°C° 0 mm 3 m/S 655 mmHg 10%
    14:00 +39°C° 0 mm 2 m/S 655 mmHg 10%
    15:00 +39°C° 0 mm 2 m/S 654 mmHg 9%
    16:00 +39°C° 0 mm 2 m/S 654 mmHg 9%
    17:00 +36°C° 0 mm 2 m/S 654 mmHg 12%
    18:00 +34°C° 0 mm 2 m/S 654 mmHg 14%
    19:00 +30°C° 0 mm 2 m/S 654 mmHg 17%
    20:00 +28°C° 0 mm 2 m/S 654 mmHg 24%
    21:00 +27°C° 0 mm 2 m/S 654 mmHg 32%
    22:00 +25°C° 0 mm 3 m/S 654 mmHg 39%
    23:00 +25°C° 0 mm 2 m/S 654 mmHg 44%

    23 Oktober, Montag

    Zeit Temperatur Niederschläge Wind Luftdruck Luftfeuchtigkeit
    00:00 +24°C° 0 mm 2 m/S 653 mmHg 50%
    01:00 +23°C° 0 mm 2 m/S 653 mmHg 55%
    02:00 +23°C° 0 mm 1 m/S 653 mmHg 55%
    03:00 +23°C° 0 mm 1 m/S 653 mmHg 55%
    04:00 +22°C° 0 mm 1 m/S 653 mmHg 54%
    05:00 +24°C° 0 mm 1 m/S 653 mmHg 49%
    06:00 +25°C° 0 mm 1 m/S 654 mmHg 43%
    07:00 +24°C° 0 mm 0 m/S 655 mmHg 37%
    08:00 +29°C° 0 mm 0 m/S 656 mmHg 29%
    09:00 +33°C° 0 mm 0 m/S 657 mmHg 21%
    10:00 +37°C° 0 mm 0 m/S 657 mmHg 13%
    11:00 +40°C° 0 mm 1 m/S 656 mmHg 13%
    12:00 +40°C° 0 mm 2 m/S 655 mmHg 14%
    13:00 +39°C° 0 mm 3 m/S 654 mmHg 14%
    14:00 +38°C° 0 mm 3 m/S 654 mmHg 16%
    15:00 +38°C° 0 mm 3 m/S 654 mmHg 17%
    16:00 +37°C° 0 mm 3 m/S 653 mmHg 18%
    17:00 +35°C° 0,1 mm 2 m/S 654 mmHg 23%
    18:00 +32°C° 0,1 mm 2 m/S 654 mmHg 27%
    19:00 +30°C° 0,1 mm 2 m/S 654 mmHg 31%
    20:00 +28°C° 0,4 mm 2 m/S 654 mmHg 38%
    21:00 +27°C° 0,4 mm 2 m/S 655 mmHg 44%
    22:00 +26°C° 0,4 mm 3 m/S 655 mmHg 51%
    23:00 +25°C° 0 mm 2 m/S 655 mmHg 53%
    Mehr zeigen